Regional Weather Roundup
Issued by NWS State College, PA

Home | Current Version | Previous Version | Graphics & Text | Print | Product List | Glossary Off
Versions: 1 2 3 4 5 6 7 8 9 10 11 12 13 14 15 16 17 18 19 20 21 22 23 24 25 26 27 28 29 30 31 32 33 34 35 36 37 38 39 40 41 42 43 44 45 46 47 48 49 50

000
ASUS41 KCTP 202010
RWRCTP

REGIONAL WEATHER ROUNDUP
NATIONAL WEATHER SERVICE STATE COLLEGE PA
300 PM EST MON FEB 20 2017

Note: "fair" indicates few or no clouds below 12,000 feet with no
significant weather and/or obstructions to visibility.

* = STATION THAT DOES NOT REPORT PRECIPITATION /E.G. RAIN...SNOW...ETC/
    THUNDER OR FOG.

PAZ002>004-007>009-013>016-020>023-029>032-202100-
WESTERN PENNSYLVANIA

CITY           SKY/WX    TMP DP  RH WIND       PRES   REMARKS
ERIE           SUNNY     43  30  60 NE13      30.28F
MEADVILLE      SUNNY     53  30  41 W3        30.23F
FRANKLIN*      SUNNY     54  30  40 SW5       30.24S
NEW CASTLE     FAIR      58  29  33 N3        30.23F
BEAVER COUNTY  SUNNY     61  30  31 CALM      30.22F
BUTLER*        MOSUNNY   59  30  33 CALM      30.23S
PITTSBURGH INT PTSUNNY   60  33  36 N3        30.21F
PITTSBURGH     SUNNY     59  34  39 CALM      30.21F
INDIANA*       SUNNY     57  32  38 VRB5      30.24F
LATROBE        SUNNY     57  32  38 CALM      30.23F
WASHINGTON CO* MOSUNNY   57  37  47 CALM      30.24S
$$

PAZ004>006-010>012-017>019-024>028-033>037-041-042-045-046-049>053-202100-
CENTRAL PENNSYLVANIA

CITY           SKY/WX    TMP DP  RH WIND       PRES   REMARKS
BRADFORD       SUNNY     50  26  39 VRB5      30.24R
DUBOIS         SUNNY     55  28  35 N7        30.22S
CLEARFIELD       N/A    N/A N/A N/A MISG      30.22F
JOHNSTOWN      SUNNY     56  27  32 N5        30.20F
ALTOONA        SUNNY     60  31  33 NE8       30.21F
STATE COLLEGE  SUNNY     55  30  38 CALM      30.23R
WILLIAMSPORT   SUNNY     55  22  27 N5        30.26R
SELINSGROVE    SUNNY     55  31  39 NE9       30.26R
FT INDIANTOWN  SUNNY     55  27  33 VRB6      30.23R
CAPITAL CITY   SUNNY     59  27  29 NW9       30.23S
HARRISBURG     MOSUNNY   58  28  32 N12       30.22S
YORK           SUNNY     59  32  36 VRB3      30.21S
$$

PAZ038>040-043-044-047-048-054-055-060>062-067>071-202100-
EASTERN PENNSYLVANIA

CITY           SKY/WX    TMP DP  RH WIND       PRES   REMARKS
SCRANTON       SUNNY     49  21  33 N14       30.23R
MOUNT POCONO   SUNNY     43  18  36 NW12G20   30.18R
ALLENTOWN      SUNNY     55  19  24 N13       30.21R
QUAKERTOWN*    CLEAR     54  21  28 N10       30.21S
READING        SUNNY     56  27  32 N7        30.21R
LANCASTER      SUNNY     57  30  35 N7        30.22R
COATESVILLE    CLEAR     55  28  35 NW10      30.21S
POTTSTOWN      SUNNY     56  23  27 N10G22    30.22R
BLUE BELL      SUNNY     54  27  35 NW7       30.20R
DOYLESTOWN     SUNNY     57  25  29 NW12G17   30.19S
WILLOW GROVE   NOT AVBL
NORTH PHILA    SUNNY     57  27  31 NW15      30.21S
PHILADELPHIA   MOSUNNY   57  24  28 NW16G22   30.21R
$$



USA.gov is the U.S. government's official web portal to all federal, state and local government web resources and services.